Regional Weather Roundup
Issued by NWS State College, PA

Home | Current Version | Previous Version | Text Only | Print | Product List | Glossary Off
Versions: 1 2 3 4 5 6 7 8 9 10 11 12 13 14 15 16 17 18 19 20 21 22 23 24 25 26 27 28 29 30 31 32 33 34 35 36 37 38 39 40 41 42 43 44 45 46 47 48 49 50

000
ASUS41 KCTP 200503
RWRCTP

REGIONAL WEATHER ROUNDUP
NATIONAL WEATHER SERVICE STATE COLLEGE PA
100 AM EDT FRI APR 20 2018

Note: "fair" indicates few or no clouds below 12,000 feet with no
significant weather and/or obstructions to visibility.

* = STATION THAT DOES NOT REPORT PRECIPITATION /E.G. RAIN...SNOW...ETC/
    THUNDER OR FOG.

PAZ002>004-007>009-013>016-020>023-029>032-200600-
WESTERN PENNSYLVANIA

CITY           SKY/WX    TMP DP  RH WIND       PRES   REMARKS
ERIE           FAIR      36  25  64 NW7       30.25R
MEADVILLE      FAIR      27  24  89 W5        30.22S
FRANKLIN*      FAIR      28  23  81 W7        30.22S
NEW CASTLE     FAIR      30  24  78 W3        30.28R
BEAVER COUNTY  NOT AVBL
BUTLER*        FAIR      29  23  78 W5        30.26R
PITTSBURGH INT FAIR      33  23  66 NW9       30.26R
PITTSBURGH     FAIR      32  24  72 N13G21    30.24R
INDIANA*       PTCLDY    32  23  69 NW8       30.25R
LATROBE        FAIR      32  23  69 N3        30.26R
WASHINGTON CO* FAIR      34  21  59 N9        30.29R
$$

PAZ004>006-010>012-017>019-024>028-033>037-041-042-045-046-049>053-200600-
CENTRAL PENNSYLVANIA

CITY           SKY/WX    TMP DP  RH WIND       PRES   REMARKS
BRADFORD       MOCLDY    28  20  71 NW12      30.12S
DUBOIS         FAIR      28  21  75 W7        30.15S
CLEARFIELD     MOCLDY    31  21  66 NW15      30.16R
JOHNSTOWN      MOCLDY    28  21  75 NW17      30.15R
ALTOONA        MOCLDY    34  21  59 NW17G28   30.16R
STATE COLLEGE  MOCLDY    33  21  62 NW7G22    30.14R
WILLIAMSPORT   FAIR      33  26  75 W8        30.13R
SELINSGROVE    CLOUDY    36  26  67 N12       30.14R
FT INDIANTOWN  CLOUDY    38  24  56 W10       30.10R
CAPITAL CITY   FAIR      40  22  48 W12       30.13R
HARRISBURG     FAIR      39  23  52 NW16      30.12R
YORK           MOCLDY    37  22  54 W7        30.14R
$$

PAZ038>040-043-044-047-048-054-055-060>062-067>071-200600-
EASTERN PENNSYLVANIA

CITY           SKY/WX    TMP DP  RH WIND       PRES   REMARKS
SCRANTON       CLOUDY    32  26  78 NW12G20   30.06R
MOUNT POCONO   CLOUDY    28  23  81 NW16G30   29.99R
ALLENTOWN      FAIR      37  25  61 NW13      30.08R
QUAKERTOWN*    CLEAR     36  25  64 VRB7G13   30.08R
READING        MOCLDY    37  28  70 N10       30.09R
LANCASTER      MOCLDY    37  25  61 NW9       30.10S
COATESVILLE    FAIR      37  25  60 NW13      30.10R
POTTSTOWN      FAIR      37  22  54 NW9G20    30.10R
BLUE BELL      FAIR      36  28  75 NW5       30.10R
DOYLESTOWN     MOCLDY    37  26  64 NW12G21   30.07R
WILLOW GROVE   NOT AVBL
NORTH PHILA    CLOUDY    42  25  50 NW20G25   30.10R
PHILADELPHIA   FAIR      41  22  46 NW14      30.10R
$$




USA.gov is the U.S. government's official web portal to all federal, state and local government web resources and services.